| time (UTC) | temp F | wind direction | speed MPH | gust MPH | rain 1hr in | rain 24hr in | rain mn in | humidity % | barometer mb |
| 20260904163555 | 77 | 134 | 1.0 | 1.0 | 0.00 | 0.00 | 0.00 | 99 | 1012.2 |
| 20260904163050 | 77 | 181 | 0.0 | 1.0 | 0.00 | 0.00 | 0.00 | 99 | 1012.2 |
| 20260904162544 | 77 | 176 | 0.0 | 0.0 | 0.00 | 0.00 | 0.00 | 99 | 1011.8 |
| 20260904162040 | 77 | 284 | 0.0 | 1.0 | 0.00 | 0.00 | 0.00 | 99 | 1012.2 |
| 20260904161534 | 77 | 181 | 0.0 | 1.0 | 0.00 | 0.00 | 0.00 | 99 | 1012.2 |
| 20260904161030 | 77 | 164 | 1.0 | 1.0 | 0.00 | 0.00 | 0.00 | 99 | 1011.8 |
| 20260904160525 | 77 | 186 | 0.0 | 0.0 | 0.00 | 0.00 | 0.00 | 99 | 1011.5 |
| 20260904160022 | 77 | 165 | 0.0 | 0.0 | 0.00 | 0.00 | 0.00 | 99 | 1011.5 |
| 20260904155520 | 77 | 182 | 0.0 | 0.0 | 0.00 | 0.00 | 0.00 | 99 | 1011.1 |
| 20260904155020 | 76 | 181 | 0.0 | 0.0 | 0.00 | 0.00 | 0.00 | 99 | 1011.5 |
| 20260904154514 | 76 | 125 | 1.0 | 1.0 | 0.00 | 0.00 | 0.00 | 99 | 1011.5 |
| 20260904154009 | 76 | 189 | 0.0 | 0.0 | 0.00 | 0.00 | 0.00 | 99 | 1011.5 |
| 20260904153508 | 75 | 155 | 0.0 | 0.0 | 0.00 | 0.00 | 0.00 | 99 | 1011.1 |
| 20260904153005 | 75 | 186 | 1.0 | 1.0 | 0.00 | 0.00 | 0.00 | 99 | 1011.1 |
| 20260904152501 | 74 | 165 | 1.0 | 1.0 | 0.00 | 0.00 | 0.00 | 99 | 1011.1 |
| 20260904151955 | 74 | 170 | 0.0 | 0.0 | 0.00 | 0.00 | 0.00 | 99 | 1011.5 |
| 20260904151450 | 74 | 160 | 0.0 | 1.0 | 0.00 | 0.00 | 0.00 | 99 | 1011.5 |
| 20260904150945 | 74 | 162 | 0.0 | 1.0 | 0.00 | 0.00 | 0.00 | 99 | 1011.5 |
| 20260904150440 | 73 | 173 | 0.0 | 0.0 | 0.00 | 0.00 | 0.00 | 99 | 1011.5 |
| 20260904145938 | 73 | 177 | 0.0 | 0.0 | 0.00 | 0.00 | 0.00 | 99 | 1011.5 |
| 20260904145434 | 73 | 160 | 1.0 | 1.0 | 0.00 | 0.00 | 0.00 | 99 | 1011.5 |
| 20260904144929 | 73 | 175 | 0.0 | 0.0 | 0.00 | 0.00 | 0.00 | 99 | 1011.1 |
| 20260904144425 | 73 | 168 | 1.0 | 1.0 | 0.00 | 0.00 | 0.00 | 99 | 1011.1 |
| 20260904143920 | 72 | 177 | 0.0 | 0.0 | 0.00 | 0.00 | 0.00 | 99 | 1011.5 |
| 20260904143417 | 72 | 166 | 0.0 | 0.0 | 0.00 | 0.00 | 0.00 | 99 | 1011.1 |
| 20260904142913 | 72 | 167 | 0.0 | 0.0 | 0.00 | 0.00 | 0.00 | 99 | 1011.1 |
| 20260904142409 | 72 | 169 | 0.0 | 0.0 | 0.00 | 0.00 | 0.00 | 99 | 1011.5 |
| 20260904141903 | 72 | 157 | 1.0 | 1.0 | 0.00 | 0.00 | 0.00 | 99 | 1011.1 |
| 20260904141358 | 71 | 182 | 0.0 | 0.0 | 0.00 | 0.00 | 0.00 | 99 | 1011.5 |
| 20260904140855 | 71 | 182 | 0.0 | 0.0 | 0.00 | 0.00 | 0.00 | 99 | 1011.1 |
| 20260904140349 | 71 | 172 | 0.0 | 1.0 | 0.00 | 0.00 | 0.00 | 99 | 1011.1 |
| 20260904135848 | 71 | 166 | 1.0 | 1.0 | 0.00 | 0.00 | 0.00 | 99 | 1010.7 |
| 20260904135343 | 71 | 176 | 0.0 | 0.0 | 0.00 | 0.00 | 0.00 | 99 | 1011.1 |
| 20260904134839 | 71 | 176 | 0.0 | 0.0 | 0.00 | 0.00 | 0.00 | 99 | 1011.5 |
| 20260904134334 | 71 | 187 | 0.0 | 0.0 | 0.00 | 0.00 | 0.00 | 99 | 1011.5 |
| 20260904133834 | 71 | 158 | 0.0 | 0.0 | 0.00 | 0.00 | 0.00 | 99 | 1011.1 |
| 20260904133329 | 71 | 139 | 0.0 | 0.0 | 0.00 | 0.00 | 0.00 | 99 | 1011.1 |
| 20260904132829 | 71 | 175 | 0.0 | 0.0 | 0.00 | 0.00 | 0.00 | 99 | 1011.1 |
| 20260904132324 | 71 | 174 | 0.0 | 0.0 | 0.00 | 0.00 | 0.00 | 99 | 1011.1 |
| 20260904131824 | 70 | 165 | 0.0 | 1.0 | 0.00 | 0.00 | 0.00 | 99 | 1011.1 |
| 20260904131320 | 71 | 173 | 0.0 | 0.0 | 0.00 | 0.00 | 0.00 | 99 | 1011.1 |
| 20260904130820 | 70 | 179 | 0.0 | 0.0 | 0.00 | 0.00 | 0.00 | 99 | 1010.7 |
| 20260904130319 | 70 | 173 | 0.0 | 0.0 | 0.00 | 0.00 | 0.00 | 99 | 1010.7 |
| 20260904125815 | 70 | 184 | 0.0 | 1.0 | 0.00 | 0.00 | 0.00 | 99 | 1011.1 |
| 20260904125311 | 70 | 146 | 2.0 | 3.0 | 0.00 | 0.00 | 0.00 | 99 | 1010.7 |
| 20260904124810 | 70 | 151 | 0.0 | 0.0 | 0.00 | 0.00 | 0.00 | 99 | 1011.1 |
| 20260904124307 | 70 | 147 | 0.0 | 0.0 | 0.00 | 0.00 | 0.00 | 99 | 1010.7 |
| 20260904123801 | 70 | 127 | 1.0 | 2.0 | 0.00 | 0.00 | 0.00 | 99 | 1010.4 |
| 20260904123256 | 70 | 168 | 0.0 | 0.0 | 0.00 | 0.00 | 0.00 | 99 | 1010.4 |
| 20260904122751 | 70 | 174 | 0.0 | 1.0 | 0.00 | 0.00 | 0.00 | 99 | 1010.4 |
| 20260904122251 | 70 | 182 | 0.0 | 0.0 | 0.00 | 0.00 | 0.00 | 99 | 1010.7 |
| 20260904121746 | 70 | 146 | 0.0 | 0.0 | 0.00 | 0.00 | 0.00 | 99 | 1010.4 |
| 20260904121243 | 70 | 170 | 0.0 | 0.0 | 0.00 | 0.00 | 0.00 | 99 | 1010.4 |
| 20260904120739 | 70 | 140 | 0.0 | 0.0 | 0.00 | 0.00 | 0.00 | 99 | 1010.4 |
| 20260904120234 | 70 | 124 | 1.0 | 1.0 | 0.00 | 0.00 | 0.00 | 99 | 1010.4 |
| 20260904115729 | 70 | 169 | 0.0 | 0.0 | 0.00 | 0.00 | 0.00 | 99 | 1010.4 |
| 20260904115224 | 70 | 175 | 0.0 | 0.0 | 0.00 | 0.00 | 0.00 | 99 | 1010.4 |
| 20260904114719 | 70 | 179 | 0.0 | 0.0 | 0.00 | 0.00 | 0.00 | 99 | 1010.4 |
| 20260904114219 | 70 | 172 | 0.0 | 0.0 | 0.00 | 0.00 | 0.00 | 99 | 1010.0 |
| 20260904113714 | 70 | 174 | 0.0 | 0.0 | 0.00 | 0.00 | 0.00 | 99 | 1010.4 |
| 20260904113213 | 70 | 174 | 0.0 | 0.0 | 0.00 | 0.00 | 0.00 | 99 | 1010.4 |
| 20260904112708 | 70 | 163 | 0.0 | 0.0 | 0.00 | 0.00 | 0.00 | 99 | 1010.0 |
| 20260904112203 | 70 | 176 | 0.0 | 0.0 | 0.00 | 0.00 | 0.00 | 99 | 1010.0 |
| 20260904111659 | 70 | 160 | 0.0 | 1.0 | 0.00 | 0.00 | 0.00 | 99 | 1010.0 |
| 20260904111154 | 70 | 174 | 0.0 | 0.0 | 0.00 | 0.00 | 0.00 | 99 | 1010.0 |
| 20260904110650 | 70 | 189 | 0.0 | 0.0 | 0.00 | 0.00 | 0.00 | 99 | 1010.0 |
| 20260904110149 | 70 | 151 | 0.0 | 1.0 | 0.00 | 0.00 | 0.00 | 99 | 1010.0 |
| 20260904105644 | 70 | 164 | 0.0 | 0.0 | 0.00 | 0.00 | 0.00 | 99 | 1010.4 |
| 20260904105139 | 70 | 176 | 0.0 | 0.0 | 0.00 | 0.00 | 0.00 | 99 | 1010.0 |
| 20260904104634 | 70 | 173 | 0.0 | 0.0 | 0.00 | 0.00 | 0.00 | 99 | 1010.0 |
| 20260904104130 | 70 | 182 | 0.0 | 0.0 | 0.00 | 0.00 | 0.00 | 99 | 1010.0 |
| 20260904103626 | 70 | 182 | 0.0 | 0.0 | 0.00 | 0.00 | 0.00 | 99 | 1009.7 |
| 20260904103121 | 70 | 180 | 1.0 | 1.0 | 0.00 | 0.00 | 0.00 | 99 | 1010.0 |
| 20260904102617 | 70 | 144 | 0.0 | 1.0 | 0.00 | 0.00 | 0.00 | 99 | 1010.0 |
| 20260904102112 | 70 | 189 | 0.0 | 0.0 | 0.00 | 0.00 | 0.00 | 99 | 1009.7 |
| 20260904101609 | 69 | 169 | 0.0 | 0.0 | 0.00 | 0.00 | 0.00 | 99 | 1010.0 |
| 20260904101104 | 68 | 66 | 1.0 | 2.0 | 0.00 | 0.00 | 0.00 | 99 | 1010.0 |
| 20260904100600 | 68 | 185 | 0.0 | 0.0 | 0.00 | 0.00 | 0.00 | 99 | 1009.7 |
| 20260904100055 | 68 | 183 | 0.0 | 0.0 | 0.00 | 0.00 | 0.00 | 99 | 1009.4 |
| 20260904095549 | 68 | 183 | 0.0 | 0.0 | 0.00 | 0.00 | 0.00 | 99 | 1009.7 |
| 20260904095044 | 68 | 178 | 0.0 | 0.0 | 0.00 | 0.00 | 0.00 | 99 | 1010.0 |
| 20260904094539 | 68 | 178 | 0.0 | 0.0 | 0.00 | 0.00 | 0.00 | 99 | 1010.0 |
| 20260904094035 | 68 | 170 | 0.0 | 0.0 | 0.00 | 0.00 | 0.00 | 99 | 1009.7 |
| 20260904093532 | 68 | 180 | 0.0 | 0.0 | 0.00 | 0.00 | 0.00 | 99 | 1010.0 |
| 20260904093031 | 68 | 180 | 0.0 | 0.0 | 0.00 | 0.00 | 0.00 | 99 | 1009.7 |
| 20260904092527 | 68 | 180 | 0.0 | 0.0 | 0.00 | 0.00 | 0.00 | 99 | 1010.0 |
| 20260904092024 | 68 | 180 | 0.0 | 0.0 | 0.00 | 0.00 | 0.00 | 99 | 1010.0 |
| 20260904091520 | 68 | 179 | 0.0 | 0.0 | 0.00 | 0.00 | 0.00 | 99 | 1009.7 |
| 20260904091019 | 68 | 166 | 0.0 | 0.0 | 0.00 | 0.00 | 0.00 | 99 | 1009.7 |
| 20260904090514 | 69 | 166 | 0.0 | 0.0 | 0.00 | 0.00 | 0.00 | 99 | 1010.0 |
| 20260904090010 | 68 | 166 | 0.0 | 0.0 | 0.00 | 0.00 | 0.00 | 99 | 1009.7 |
| 20260904085505 | 68 | 166 | 0.0 | 0.0 | 0.00 | 0.00 | 0.00 | 99 | 1009.7 |
| 20260904085004 | 68 | 166 | 0.0 | 0.0 | 0.00 | 0.00 | 0.00 | 99 | 1009.7 |
| 20260904084500 | 68 | 167 | 0.0 | 0.0 | 0.00 | 0.00 | 0.00 | 99 | 1009.7 |
| 20260904083955 | 68 | 164 | 0.0 | 0.0 | 0.00 | 0.00 | 0.00 | 99 | 1009.4 |
| 20260904083452 | 68 | 167 | 0.0 | 0.0 | 0.00 | 0.00 | 0.00 | 99 | 1009.4 |
| 20260904082947 | 68 | 171 | 0.0 | 0.0 | 0.00 | 0.00 | 0.00 | 99 | 1009.4 |
| 20260904082442 | 68 | 171 | 0.0 | 0.0 | 0.00 | 0.00 | 0.00 | 99 | 1009.4 |
| 20260904081937 | 68 | 174 | 0.0 | 0.0 | 0.00 | 0.00 | 0.00 | 99 | 1009.4 |
| 20260904081433 | 68 | 174 | 0.0 | 0.0 | 0.00 | 0.00 | 0.00 | 99 | 1009.7 |
| 20260904080929 | 68 | 174 | 0.0 | 0.0 | 0.00 | 0.00 | 0.00 | 99 | 1009.7 |
| 20260904080424 | 68 | 174 | 0.0 | 0.0 | 0.00 | 0.00 | 0.00 | 99 | 1009.4 |
| 20260904075920 | 68 | 174 | 0.0 | 0.0 | 0.00 | 0.00 | 0.00 | 99 | 1009.4 |
| 20260904075415 | 68 | 175 | 0.0 | 0.0 | 0.00 | 0.00 | 0.00 | 99 | 1009.7 |
| 20260904074913 | 68 | 175 | 0.0 | 0.0 | 0.00 | 0.00 | 0.00 | 99 | 1009.4 |
| 20260904074409 | 68 | 175 | 0.0 | 0.0 | 0.00 | 0.00 | 0.00 | 99 | 1009.4 |
| 20260904073904 | 68 | 174 | 0.0 | 0.0 | 0.00 | 0.00 | 0.00 | 99 | 1009.4 |
| 20260904073400 | 68 | 175 | 0.0 | 0.0 | 0.00 | 0.00 | 0.00 | 99 | 1009.4 |
| 20260904072855 | 69 | 180 | 0.0 | 0.0 | 0.00 | 0.00 | 0.00 | 99 | 1009.7 |
| 20260904072350 | 69 | 172 | 0.0 | 0.0 | 0.00 | 0.00 | 0.00 | 99 | 1009.7 |
| 20260904071846 | 69 | 172 | 0.0 | 0.0 | 0.00 | 0.00 | 0.00 | 99 | 1009.4 |
| 20260904071341 | 69 | 161 | 0.0 | 0.0 | 0.00 | 0.00 | 0.00 | 99 | 1009.4 |
| 20260904070836 | 69 | 164 | 0.0 | 0.0 | 0.00 | 0.00 | 0.00 | 99 | 1009.7 |
| 20260904070334 | 69 | 178 | 0.0 | 0.0 | 0.00 | 0.00 | 0.00 | 99 | 1009.7 |
| 20260904065829 | 69 | 179 | 0.0 | 0.0 | 0.00 | 0.00 | 0.00 | 99 | 1009.7 |
| 20260904065326 | 69 | 179 | 0.0 | 0.0 | 0.00 | 0.00 | 0.00 | 99 | 1009.7 |
| 20260904064820 | 69 | 178 | 0.0 | 0.0 | 0.00 | 0.00 | 0.00 | 99 | 1009.7 |
| 20260904064316 | 69 | 179 | 0.0 | 0.0 | 0.00 | 0.00 | 0.00 | 99 | 1009.7 |
| 20260904063807 | 69 | 180 | 0.0 | 0.0 | 0.00 | 0.00 | 0.00 | 99 | 1010.0 |
| 20260904063303 | 69 | 174 | 0.0 | 0.0 | 0.00 | 0.00 | 0.00 | 99 | 1010.0 |
| 20260904062758 | 69 | 174 | 0.0 | 0.0 | 0.00 | 0.00 | 0.00 | 99 | 1010.0 |
| 20260904062253 | 70 | 174 | 0.0 | 0.0 | 0.00 | 0.00 | 0.00 | 99 | 1010.0 |
| 20260904061749 | 70 | 174 | 0.0 | 0.0 | 0.00 | 0.00 | 0.00 | 99 | 1010.0 |
| 20260904061245 | 70 | 174 | 0.0 | 0.0 | 0.00 | 0.00 | 0.00 | 99 | 1010.0 |
| 20260904060741 | 70 | 174 | 0.0 | 0.0 | 0.00 | 0.00 | 0.00 | 99 | 1010.4 |
| 20260904060237 | 70 | 173 | 0.0 | 0.0 | 0.00 | 0.00 | 0.00 | 99 | 1010.0 |
| 20260904055732 | 70 | 174 | 0.0 | 0.0 | 0.00 | 0.00 | 0.00 | 99 | 1010.0 |
| 20260904055233 | 70 | 170 | 0.0 | 0.0 | 0.00 | 0.00 | 0.00 | 99 | 1010.0 |
| 20260904054728 | 70 | 171 | 0.0 | 0.0 | 0.00 | 0.00 | 0.00 | 99 | 1010.0 |
| 20260904054225 | 70 | 171 | 0.0 | 0.0 | 0.00 | 0.00 | 0.00 | 99 | 1010.4 |
| 20260904053720 | 70 | 172 | 0.0 | 0.0 | 0.00 | 0.00 | 0.00 | 99 | 1010.4 |
| 20260904053219 | 70 | 171 | 0.0 | 0.0 | 0.00 | 0.00 | 0.00 | 99 | 1010.0 |
| 20260904052715 | 70 | 172 | 0.0 | 0.0 | 0.00 | 0.00 | 0.00 | 99 | 1010.0 |
| 20260904052211 | 70 | 174 | 0.0 | 0.0 | 0.00 | 0.00 | 0.00 | 99 | 1010.0 |
| 20260904051707 | 70 | 174 | 0.0 | 0.0 | 0.00 | 0.00 | 0.00 | 99 | 1010.4 |
| 20260904051203 | 71 | 173 | 0.0 | 0.0 | 0.00 | 0.00 | 0.00 | 99 | 1010.4 |
| 20260904050657 | 71 | 171 | 0.0 | 0.0 | 0.00 | 0.00 | 0.00 | 99 | 1010.4 |
| 20260904050153 | 71 | 183 | 0.0 | 0.0 | 0.00 | 0.00 | 0.00 | 99 | 1010.0 |
| 20260904045648 | 71 | 166 | 0.0 | 0.0 | 0.00 | 0.68 | 0.68 | 99 | 1010.4 |
| 20260904045148 | 71 | 171 | 0.0 | 0.0 | 0.00 | 0.68 | 0.68 | 99 | 1010.4 |
| 20260904044643 | 71 | 170 | 0.0 | 0.0 | 0.00 | 0.68 | 0.68 | 99 | 1010.4 |
| 20260904044140 | 71 | 173 | 0.0 | 0.0 | 0.00 | 0.68 | 0.68 | 99 | 1010.4 |
| 20260904043636 | 71 | 153 | 0.0 | 0.0 | 0.00 | 0.68 | 0.68 | 99 | 1010.0 |
| 20260904043131 | 71 | 174 | 0.0 | 0.0 | 0.00 | 0.68 | 0.68 | 99 | 1010.4 |
| 20260904042627 | 71 | 175 | 0.0 | 0.0 | 0.00 | 0.68 | 0.68 | 99 | 1010.0 |
| 20260904042122 | 71 | 177 | 0.0 | 0.0 | 0.00 | 0.68 | 0.68 | 99 | 1010.0 |
| 20260904041618 | 71 | 174 | 0.0 | 0.0 | 0.00 | 0.68 | 0.68 | 99 | 1010.0 |
| 20260904041114 | 71 | 174 | 0.0 | 0.0 | 0.00 | 0.68 | 0.68 | 99 | 1010.4 |
| 20260904040609 | 71 | 177 | 0.0 | 0.0 | 0.00 | 0.68 | 0.68 | 99 | 1010.4 |
| 20260904040106 | 71 | 166 | 0.0 | 0.0 | 0.00 | 0.68 | 0.68 | 99 | 1010.4 |
| 20260904035601 | 71 | 172 | 0.0 | 0.0 | 0.00 | 0.68 | 0.68 | 99 | 1010.4 |
| 20260904035101 | 71 | 165 | 0.0 | 0.0 | 0.00 | 0.68 | 0.68 | 99 | 1010.4 |
| 20260904034555 | 71 | 173 | 0.0 | 0.0 | 0.00 | 0.68 | 0.68 | 99 | 1010.4 |
| 20260904034051 | 71 | 170 | 0.0 | 0.0 | 0.00 | 0.68 | 0.68 | 99 | 1010.4 |
| 20260904033546 | 71 | 171 | 0.0 | 0.0 | 0.00 | 0.68 | 0.68 | 99 | 1010.7 |
| 20260904033044 | 71 | 171 | 0.0 | 0.0 | 0.00 | 0.68 | 0.68 | 99 | 1010.7 |
| 20260904032539 | 71 | 176 | 0.0 | 0.0 | 0.00 | 0.68 | 0.68 | 99 | 1010.4 |
| 20260904032038 | 71 | 175 | 0.0 | 0.0 | 0.00 | 0.68 | 0.68 | 99 | 1010.4 |
| 20260904031537 | 71 | 155 | 0.0 | 0.0 | 0.00 | 0.68 | 0.68 | 99 | 1010.4 |
| 20260904031034 | 71 | 171 | 0.0 | 0.0 | 0.00 | 0.68 | 0.68 | 99 | 1010.4 |
| 20260904030529 | 71 | 174 | 0.0 | 0.0 | 0.00 | 0.68 | 0.68 | 99 | 1010.4 |
| 20260904030025 | 71 | 176 | 0.0 | 0.0 | 0.00 | 0.68 | 0.68 | 99 | 1010.7 |
| 20260904025520 | 71 | 171 | 0.0 | 0.0 | 0.00 | 0.68 | 0.68 | 99 | 1010.7 |
| 20260904025020 | 71 | 173 | 0.0 | 0.0 | 0.00 | 0.68 | 0.68 | 99 | 1010.7 |
| 20260904024516 | 71 | 174 | 0.0 | 0.0 | 0.00 | 0.68 | 0.68 | 99 | 1010.4 |
| 20260904024012 | 71 | 172 | 0.0 | 0.0 | 0.00 | 0.68 | 0.68 | 99 | 1010.4 |
| 20260904023508 | 71 | 154 | 0.0 | 0.0 | 0.00 | 0.68 | 0.68 | 99 | 1010.4 |
| 20260904023003 | 71 | 158 | 0.0 | 0.0 | 0.00 | 0.68 | 0.68 | 99 | 1010.4 |
| 20260904022458 | 71 | 165 | 0.0 | 0.0 | 0.00 | 0.68 | 0.68 | 99 | 1010.4 |
| 20260904021955 | 71 | 169 | 0.0 | 0.0 | 0.00 | 0.68 | 0.68 | 99 | 1010.4 |
| 20260904021450 | 71 | 170 | 0.0 | 0.0 | 0.00 | 0.68 | 0.68 | 99 | 1010.4 |
| 20260904020950 | 71 | 173 | 0.0 | 0.0 | 0.00 | 0.68 | 0.68 | 99 | 1010.4 |
| 20260904020446 | 71 | 172 | 0.0 | 0.0 | 0.00 | 0.68 | 0.68 | 99 | 1010.4 |
| 20260904015943 | 71 | 172 | 0.0 | 0.0 | 0.00 | 0.68 | 0.68 | 99 | 1010.4 |
| 20260904015439 | 71 | 171 | 0.0 | 0.0 | 0.00 | 0.68 | 0.68 | 99 | 1010.4 |
| 20260904014938 | 71 | 172 | 0.0 | 0.0 | 0.00 | 0.68 | 0.68 | 99 | 1010.4 |
| 20260904014433 | 71 | 171 | 0.0 | 0.0 | 0.00 | 0.68 | 0.68 | 99 | 1010.7 |
| 20260904013929 | 71 | 188 | 0.0 | 0.0 | 0.00 | 0.68 | 0.68 | 99 | 1010.4 |
| 20260904013425 | 71 | 191 | 0.0 | 0.0 | 0.00 | 0.68 | 0.68 | 99 | 1010.4 |
| 20260904012921 | 71 | 202 | 0.0 | 0.0 | 0.00 | 0.68 | 0.68 | 99 | 1010.4 |
| 20260904012420 | 71 | 178 | 0.0 | 0.0 | 0.00 | 0.68 | 0.68 | 99 | 1010.0 |
| 20260904011915 | 71 | 164 | 0.0 | 1.0 | 0.00 | 0.68 | 0.68 | 99 | 1010.0 |
| 20260904011410 | 71 | 170 | 0.0 | 0.0 | 0.00 | 0.68 | 0.68 | 99 | 1010.0 |
| 20260904010905 | 71 | 177 | 0.0 | 0.0 | 0.00 | 0.68 | 0.68 | 99 | 1010.0 |
| 20260904010402 | 71 | 166 | 0.0 | 0.0 | 0.00 | 0.68 | 0.68 | 99 | 1010.0 |
| 20260904005856 | 71 | 157 | 0.0 | 0.0 | 0.00 | 0.68 | 0.68 | 99 | 1009.7 |
| 20260904005352 | 71 | 167 | 0.0 | 0.0 | 0.00 | 0.68 | 0.68 | 99 | 1010.0 |
| 20260904004846 | 71 | 174 | 0.0 | 0.0 | 0.00 | 0.68 | 0.68 | 99 | 1010.0 |
| 20260904004343 | 71 | 174 | 0.0 | 0.0 | 0.00 | 0.68 | 0.68 | 99 | 1009.7 |
| 20260904003838 | 72 | 171 | 0.0 | 0.0 | 0.00 | 0.68 | 0.68 | 99 | 1010.0 |
| 20260904003333 | 72 | 177 | 0.0 | 0.0 | 0.00 | 0.68 | 0.68 | 99 | 1009.4 |
| 20260904002828 | 72 | 184 | 0.0 | 0.0 | 0.00 | 0.68 | 0.68 | 99 | 1009.7 |
| 20260904002325 | 72 | 168 | 0.0 | 0.0 | 0.00 | 0.68 | 0.68 | 99 | 1009.7 |
| 20260904001824 | 73 | 173 | 0.0 | 0.0 | 0.00 | 0.68 | 0.68 | 99 | 1009.4 |
| 20260904001319 | 73 | 172 | 0.0 | 0.0 | 0.00 | 0.68 | 0.68 | 99 | 1009.4 |
| 20260904000814 | 73 | 169 | 0.0 | 0.0 | 0.00 | 0.68 | 0.68 | 99 | 1009.4 |
| 20260904000314 | 73 | 172 | 0.0 | 0.0 | 0.00 | 0.68 | 0.68 | 99 | 1009.7 |
| 20260903235808 | 73 | 178 | 0.0 | 0.0 | 0.00 | 0.68 | 0.68 | 99 | 1009.7 |
| 20260903235305 | 73 | 181 | 0.0 | 0.0 | 0.00 | 0.68 | 0.68 | 99 | 1009.7 |
| 20260903234803 | 73 | 186 | 0.0 | 0.0 | 0.00 | 0.68 | 0.68 | 99 | 1009.4 |
| 20260903234300 | 73 | 156 | 0.0 | 0.0 | 0.00 | 0.68 | 0.68 | 99 | 1009.7 |
| 20260903233756 | 73 | 185 | 0.0 | 0.0 | 0.00 | 0.68 | 0.68 | 99 | 1009.4 |
| 20260903233252 | 73 | 168 | 0.0 | 0.0 | 0.00 | 0.68 | 0.68 | 99 | 1009.7 |
| 20260903232750 | 73 | 187 | 0.0 | 0.0 | 0.00 | 0.68 | 0.68 | 99 | 1009.4 |
| 20260903232246 | 73 | 189 | 0.0 | 1.0 | 0.00 | 0.68 | 0.68 | 99 | 1009.4 |
| 20260903231739 | 73 | 173 | 0.0 | 0.0 | 0.00 | 0.68 | 0.68 | 99 | 1009.4 |
| 20260903231235 | 73 | 157 | 0.0 | 1.0 | 0.00 | 0.68 | 0.68 | 99 | 1009.4 |
| 20260903230730 | 73 | 131 | 0.0 | 0.0 | 0.00 | 0.68 | 0.68 | 99 | 1009.4 |
| 20260903230225 | 73 | 180 | 0.0 | 0.0 | 0.00 | 0.68 | 0.68 | 99 | 1009.4 |
| 20260903225722 | 73 | 187 | 0.0 | 0.0 | 0.02 | 0.68 | 0.68 | 99 | 1009.7 |
| 20260903225218 | 73 | 179 | 0.0 | 0.0 | 0.03 | 0.68 | 0.68 | 99 | 1009.4 |
| 20260903224714 | 73 | 167 | 1.0 | 1.0 | 0.04 | 0.68 | 0.68 | 99 | 1009.4 |
| 20260903224210 | 73 | 116 | 1.0 | 1.0 | 0.06 | 0.68 | 0.68 | 99 | 1009.7 |
| 20260903223705 | 72 | 180 | 1.0 | 1.0 | 0.08 | 0.68 | 0.68 | 99 | 1009.4 |
| 20260903223204 | 72 | 163 | 0.0 | 1.0 | 0.08 | 0.68 | 0.68 | 99 | 1009.4 |
| 20260903222704 | 72 | 182 | 0.0 | 0.0 | 0.08 | 0.68 | 0.68 | 99 | 1009.4 |
| 20260903222203 | 72 | 187 | 3.0 | 3.0 | 0.09 | 0.68 | 0.68 | 99 | 1009.7 |
| 20260903221657 | 71 | 160 | 3.0 | 3.0 | 0.09 | 0.68 | 0.68 | 99 | 1009.7 |
| 20260903221156 | 71 | 139 | 2.0 | 2.0 | 0.10 | 0.68 | 0.68 | 99 | 1009.4 |
| 20260903220655 | 71 | 231 | 1.0 | 1.0 | 0.13 | 0.68 | 0.68 | 99 | 1009.7 |
| 20260903220149 | 70 | 154 | 0.0 | 0.0 | 0.11 | 0.66 | 0.66 | 99 | 1010.0 |
| 20260903215648 | 70 | 22 | 1.0 | 2.0 | 0.10 | 0.65 | 0.65 | 99 | 1009.7 |
| 20260903215144 | 70 | 182 | 0.0 | 0.0 | 0.09 | 0.64 | 0.64 | 99 | 1009.7 |
| 20260903214642 | 70 | 157 | 0.0 | 1.0 | 0.07 | 0.62 | 0.62 | 99 | 1010.0 |
| 20260903214138 | 70 | 170 | 1.0 | 1.0 | 0.05 | 0.60 | 0.60 | 99 | 1010.4 |
| 20260903213632 | 70 | 197 | 0.0 | 0.0 | 0.05 | 0.60 | 0.60 | 99 | 1010.4 |
| 20260903213129 | 71 | 162 | 0.0 | 1.0 | 0.05 | 0.60 | 0.60 | 99 | 1010.4 |
| 20260903212624 | 71 | 160 | 0.0 | 1.0 | 0.04 | 0.59 | 0.59 | 99 | 1010.4 |
| 20260903212119 | 71 | 172 | 0.0 | 0.0 | 0.04 | 0.59 | 0.59 | 99 | 1009.4 |
| 20260903211614 | 71 | 146 | 2.0 | 2.0 | 0.03 | 0.58 | 0.58 | 99 | 1009.4 |
| 20260903211112 | 71 | 178 | 0.0 | 1.0 | 0.00 | 0.55 | 0.55 | 99 | 1009.7 |
| 20260903210606 | 71 | 185 | 0.0 | 0.0 | 0.00 | 0.55 | 0.55 | 99 | 1010.4 |
| 20260903205601 | 72 | 192 | 0.0 | 0.0 | 0.00 | 0.55 | 0.55 | 99 | 1010.4 |
| 20260903205055 | 72 | 169 | 0.0 | 1.0 | 0.00 | 0.55 | 0.55 | 99 | 1010.0 |
| 20260903204552 | 72 | 167 | 0.0 | 1.0 | 0.00 | 0.55 | 0.55 | 99 | 1010.4 |
| 20260903204052 | 72 | 177 | 0.0 | 1.0 | 0.00 | 0.55 | 0.55 | 99 | 1010.7 |
| 20260903203547 | 72 | 187 | 0.0 | 0.0 | 0.00 | 0.55 | 0.55 | 99 | 1010.7 |
| 20260903203042 | 72 | 188 | 1.0 | 1.0 | 0.00 | 0.55 | 0.55 | 99 | 1010.4 |
| 20260903202538 | 72 | 149 | 1.0 | 1.0 | 0.00 | 0.55 | 0.55 | 99 | 1010.0 |
| 20260903202033 | 72 | 167 | 0.0 | 1.0 | 0.00 | 0.55 | 0.55 | 99 | 1010.4 |
| 20260903201527 | 72 | 174 | 0.0 | 0.0 | 0.00 | 0.55 | 0.55 | 99 | 1010.7 |
| 20260903201027 | 72 | 177 | 0.0 | 0.0 | 0.00 | 0.55 | 0.55 | 99 | 1010.7 |
| 20260903200522 | 72 | 167 | 0.0 | 0.0 | 0.00 | 0.55 | 0.55 | 99 | 1011.1 |
| 20260903200017 | 72 | 161 | 1.0 | 1.0 | 0.00 | 0.55 | 0.55 | 99 | 1011.5 |
| 20260903195513 | 73 | 184 | 0.0 | 0.0 | 0.00 | 0.55 | 0.55 | 99 | 1011.5 |
| 20260903195008 | 73 | 141 | 1.0 | 1.0 | 0.00 | 0.55 | 0.55 | 98 | 1010.7 |
| 20260903194503 | 74 | 180 | 0.0 | 0.0 | 0.00 | 0.55 | 0.55 | 97 | 1010.7 |
| 20260903193959 | 75 | 191 | 0.0 | 0.0 | 0.00 | 0.55 | 0.55 | 97 | 1010.7 |
| 20260903193455 | 75 | 173 | 0.0 | 0.0 | 0.00 | 0.55 | 0.55 | 97 | 1010.7 |
| 20260903192955 | 74 | 121 | 1.0 | 2.0 | 0.00 | 0.55 | 0.55 | 97 | 1010.7 |
| 20260903192453 | 75 | 20 | 2.0 | 2.0 | 0.00 | 0.55 | 0.55 | 97 | 1010.7 |
| 20260903191947 | 74 | 181 | 0.0 | 0.0 | 0.00 | 0.55 | 0.55 | 97 | 1010.4 |
| 20260903191443 | 74 | 175 | 2.0 | 2.0 | 0.00 | 0.55 | 0.55 | 98 | 1010.7 |
| 20260903190942 | 73 | 113 | 2.0 | 3.0 | 0.00 | 0.55 | 0.55 | 99 | 1011.1 |
| 20260903190437 | 72 | 186 | 0.0 | 0.0 | 0.00 | 0.55 | 0.55 | 99 | 1010.7 |
| 20260903185936 | 72 | 148 | 1.0 | 1.0 | 0.00 | 0.55 | 0.55 | 99 | 1011.1 |
| 20260903185432 | 72 | 100 | 1.0 | 2.0 | 0.00 | 0.55 | 0.55 | 99 | 1011.1 |
| 20260903184927 | 72 | 177 | 0.0 | 0.0 | 0.00 | 0.55 | 0.55 | 99 | 1011.1 |
| 20260903184424 | 71 | 178 | 0.0 | 0.0 | 0.00 | 0.55 | 0.55 | 99 | 1011.8 |
| 20260903183924 | 72 | 197 | 0.0 | 0.0 | 0.02 | 0.55 | 0.55 | 99 | 1011.5 |
| 20260903183419 | 71 | 170 | 0.0 | 0.0 | 0.04 | 0.55 | 0.55 | 99 | 1011.1 |
| 20260903182918 | 72 | 161 | 3.0 | 3.0 | 0.04 | 0.55 | 0.55 | 99 | 1011.5 |
| 20260903182417 | 72 | 173 | 0.0 | 0.0 | 0.04 | 0.55 | 0.55 | 99 | 1011.5 |
| 20260903181912 | 71 | 154 | 1.0 | 1.0 | 0.04 | 0.55 | 0.55 | 99 | 1011.8 |
| 20260903181407 | 71 | 177 | 0.0 | 0.0 | 0.04 | 0.55 | 0.55 | 99 | 1011.8 |
| 20260903180906 | 71 | 175 | 0.0 | 0.0 | 0.04 | 0.55 | 0.55 | 99 | 1011.8 |
| 20260903180401 | 71 | 142 | 0.0 | 0.0 | 0.04 | 0.55 | 0.55 | 99 | 1011.5 |
| 20260903175901 | 71 | 171 | 0.0 | 0.0 | 0.04 | 0.55 | 0.55 | 99 | 1011.8 |
| 20260903175401 | 72 | 146 | 1.0 | 1.0 | 0.04 | 0.55 | 0.55 | 99 | 1011.5 |
| 20260903174856 | 72 | 165 | 0.0 | 1.0 | 0.04 | 0.55 | 0.55 | 99 | 1011.5 |
| 20260903174351 | 73 | 168 | 0.0 | 1.0 | 0.03 | 0.54 | 0.54 | 99 | 1011.5 |
| 20260903173850 | 73 | 181 | 0.0 | 0.0 | 0.00 | 0.51 | 0.51 | 99 | 1011.8 |
| 20260903173346 | 73 | 178 | 0.0 | 0.0 | 0.00 | 0.51 | 0.51 | 98 | 1011.1 |
| 20260903172842 | 73 | 180 | 0.0 | 0.0 | 0.00 | 0.51 | 0.51 | 98 | 1011.5 |
| 20260903172336 | 73 | 181 | 0.0 | 0.0 | 0.00 | 0.51 | 0.51 | 97 | 1011.5 |
| 20260903171832 | 73 | 165 | 0.0 | 0.0 | 0.00 | 0.51 | 0.51 | 99 | 1011.5 |
| 20260903171327 | 73 | 175 | 0.0 | 1.0 | 0.00 | 0.51 | 0.51 | 99 | 1011.5 |
| 20260903170826 | 73 | 179 | 0.0 | 0.0 | 0.00 | 0.51 | 0.51 | 99 | 1011.5 |
| 20260903170321 | 72 | 173 | 0.0 | 0.0 | 0.00 | 0.51 | 0.51 | 99 | 1011.5 |
| 20260903165819 | 72 | 170 | 0.0 | 0.0 | 0.00 | 0.51 | 0.51 | 99 | 1011.8 |
| 20260903165314 | 72 | 164 | 0.0 | 0.0 | 0.00 | 0.51 | 0.51 | 99 | 1011.8 |
| 20260903164814 | 72 | 169 | 0.0 | 0.0 | 0.00 | 0.51 | 0.51 | 99 | 1012.2 |
| 20260903164310 | 71 | 184 | 0.0 | 0.0 | 0.00 | 0.51 | 0.51 | 99 | 1011.8 |